Regional Weather Roundup
Issued by NWS Memphis, TN

Home | Current Version | Previous Version | Text Only | Print | Product List | Glossary On
Versions: 1 2 3 4 5 6 7 8 9 10 11 12 13 14 15 16 17 18 19 20 21 22 23 24 25 26 27 28 29 30 31 32 33 34 35 36 37 38 39 40 41 42 43 44 45 46 47 48 49 50
000
ASUS44 KMEG 062110
RWRMEG
MEMPHIS CWA HOURLY WEATHER ROUNDUP
NATIONAL WEATHER SERVICE MEMPHIS TN
300 PM CST SAT FEB 06 2016

...WEST TENNESSEE...

CITY           SKY/WX    TMP DP  RH WIND       PRES   REMARKS
MEMPHIS INTL   PTSUNNY   54  19  25 VRB5      30.30F
NWS MEMPHIS      N/A     52 N/A N/A MISG        N/A
JACKSON        SUNNY     53  20  27 VRB3      30.30F
LEXINGTON      SUNNY     50  16  25 SW5       30.29S
DYERSBURG      SUNNY     52  18  25 NW6       30.32S
UNION CITY     SUNNY     54  23  30 SW5       30.29S
PARIS          SUNNY     50  21  32 W6        30.30S


...EASTERN ARKANSAS...

CITY           SKY/WX    TMP DP  RH WIND       PRES   REMARKS
JONESBORO      SUNNY     52  23  32 S7        30.30F
WEST MEMPHIS   MOSUNNY   53  27  36 NW6       30.31F
BATESVILLE     SUNNY     55  14  19 S3        30.29F
NEWPORT        SUNNY     56  13  18 SE7       30.32F
WALNUT RIDGE   SUNNY     54  19  26 S3        30.30F
BLYTHEVILLE    SUNNY     57  21  24 SW6       30.31F
SEARCY         SUNNY     56  20  24 S3        30.32F
STUTTGART      SUNNY     54  21  28 N5        30.32S
PINE BLUFF     SUNNY     55  21  26 CALM      30.30F
MONTICELLO     SUNNY     58  19  22 SE6       30.28F


...NORTH MISSISSIPPI...

CITY           SKY/WX    TMP DP  RH WIND       PRES   REMARKS
TUPELO         MOSUNNY   53  19  26 N8        30.31F
OXFORD         MOSUNNY   52  16  24 CALM      30.32R
OLIVE BRANCH   PTSUNNY   50  23  34 CALM      30.31S
TUNICA         SUNNY     52  23  32 CALM      30.33S
CORINTH        MOSUNNY   52  18  25 E5        30.31S
GREENWOOD      SUNNY     57  17  21 VRB5      30.29F
COLUMBUS       SUNNY     54  19  25 N8        30.29S
STARKVILLE     FAIR      54  23  30 NE8       30.30R
GOLDEN TRIANGL SUNNY     54  19  26 NE7       30.29S


...SOUTHEAST MISSOURI...

CITY           SKY/WX    TMP DP  RH WIND       PRES   REMARKS
WEST PLAINS    SUNNY     53  18  25 S7        30.26F
POPLAR BLUFF   SUNNY     55  20  25 SW10      30.27F
CAPE GIRARDEAU SUNNY     54  19  25 SW7       30.26F


...NORTHWEST ALABAMA...

CITY           SKY/WX    TMP DP  RH WIND       PRES   REMARKS
MUSCLE SHOALS  MOSUNNY   49  22  34 E3        30.31F


...MIDDLE TENNESSEE...

CITY           SKY/WX    TMP DP  RH WIND       PRES   REMARKS
NASHVILLE      CLOUDY    51  16  24 CALM      30.30F
CLARKSVILLE    SUNNY     53  20  27 W5        30.28F
COLUMBIA       SUNNY     50  21  32 CALM      30.28S


...WESTERN KENTUCKY...

CITY           SKY/WX    TMP DP  RH WIND       PRES   REMARKS
PADUCAH        SUNNY     55  22  27 W12       30.26F
FORT CAMPBELL  SUNNY     52  20  28 W6        30.28F


...CENTRAL ARKANSAS...

CITY           SKY/WX    TMP DP  RH WIND       PRES   REMARKS
LITTLE ROCK    MOSUNNY   56  19  23 SE8       30.30F


SKY/WX REPORTED AS FAIR MEANS FEW OR NO CLOUDS BELOW
12 THOUSAND FEET.




USA.gov is the U.S. government's official web portal to all federal, state and local government web resources and services.